This is the latest recevied weather packets stored in our database for station/object N7JP. If no packets are shown the sender has not sent any weather packets the latest 10 day(s).
| Time | Temp. | Humidity | Pressure | Rain* | Wind** | Luminosity | Snow |
|---|---|---|---|---|---|---|---|
| 1777750043 | 18.33° C | 68% | 1011.4 hPa | 0 mm | - | - | - |
| 1777749109 | 17.78° C | 70% | 1011.5 hPa | 0 mm | - | - | - |
| 1777748196 | 17.22° C | 73% | 1011.7 hPa | 0 mm | - | - | - |
| 1777747292 | 16.67° C | 75% | 1011.9 hPa | 0 mm | - | - | - |
| 1777746388 | 16.11° C | 78% | 1012.1 hPa | 0 mm | - | - | - |
| 1777745487 | 15.56° C | 76% | 1012.1 hPa | 0 mm | - | - | - |
| 1777744587 | 15.56° C | 78% | 1012.2 hPa | 0 mm | - | - | - |
| 1777743687 | 15.56° C | 78% | 1012.2 hPa | 0 mm | - | - | - |
| 1777742787 | 15.56° C | 79% | 1012.2 hPa | 0 mm | - | - | - |
| 1777741888 | 14.44° C | 82% | 1012.2 hPa | 0 mm | - | - | - |
| 1777740970 | 14.44° C | 82% | 1012.4 hPa | 0 mm | - | - | - |
| 1777740065 | 13.89° C | 85% | 1012.3 hPa | 0 mm | - | - | - |
| 1777739129 | 13.89° C | 86% | 1012.4 hPa | 0 mm | - | - | - |
| 1777738229 | 12.78° C | 86% | 1012.3 hPa | 0 mm | - | - | - |
| 1777737316 | 12.78° C | 87% | 1012.3 hPa | 0 mm | - | - | - |
| 1777736414 | 12.22° C | 87% | 1012.2 hPa | 0 mm | - | - | - |
| 1777735513 | 11.67° C | 87% | 1012.3 hPa | 0 mm | - | - | - |
| 1777734609 | 11.11° C | 86% | 1012.3 hPa | 0 mm | - | - | - |
| 1777733709 | 10.56° C | 86% | 1012.2 hPa | 0 mm | - | - | - |
| 1777732807 | 10.56° C | 86% | 1012.2 hPa | 0 mm | - | - | - |
| 1777731892 | 10° C | 86% | 1012.1 hPa | 0 mm | - | - | - |
| 1777730991 | 10° C | 86% | 1012.1 hPa | 0 mm | - | - | - |
| 1777730093 | 10° C | 87% | 1011.9 hPa | 0 mm | - | - | - |
| 1777729172 | 9.44° C | 87% | 1011.8 hPa | 0 mm | - | - | - |
| 1777728260 | 8.89° C | 87% | 1011.9 hPa | 0 mm | - | - | - |
* Rain latest hour (hover to see other rain measurements)
** Current wind speed in m/s (hover to see current wind gust speed)